Location: Jarosław
(50.0191°N, 22.6835°E)
Time: 14:18:36
(UTC+01:00)

ISS - Pass Details

Date: 24 January 2019
Orbit: 403 x 411 km, 51.6° (Epoch: 16 February)

Event Time Altitude Azimuth Distance (km) Brightness Sun altitude
Rises 17:44:41 0° 213° (SSW) 2,324 0.7 -15.1°
Reaches altitude 10° 17:47:01 10° 199° (SSW) 1,469 -0.6 -15.5°
Maximum altitude 17:49:42 23° 144° (SE) 915 -2.3 -15.9°
Enters shadow 17:50:01 23° 134° (SE) 925 -2.3 -15.9°
